FW6216 Weather Reports


Display with metric or nautical units.
time (UTC)temp
F
wind
direction
speed
MPH
gust
MPH
rain 1hr
in
rain 24hr
in
rain mn
in
humidity
%
barometer
mb
20260902113034 47 180 0.0 0.0 0.00 0.00 0.00 88 1012.9
20260902104535 48 180 0.0 4.0 0.00 0.00 0.00 85 1012.7
20260902103108 49 212 0.0 3.0 0.00 0.00 0.00 85 1012.7
20260902101530 50 228 0.0 3.0 0.00 0.00 0.00 85 1012.8
20260902100142 51 226 2.0 4.0 0.00 0.00 0.00 85 1012.9
20260902094531 50 203 0.0 3.0 0.00 0.00 0.00 85 1013.0
20260902093107 50 182 0.0 3.0 0.00 0.00 0.00 85 1012.9
20260902091532 50 214 1.0 5.0 0.00 0.00 0.00 85 1012.9
20260902090036 50 232 3.0 4.0 0.00 0.00 0.00 85 1013.0
20260902083035 51 225 0.0 2.0 0.00 0.00 0.00 83 1013.0
20260902081530 51 230 2.0 4.0 0.00 0.00 0.00 82 1012.9
20260902080032 52 157 0.0 1.0 0.00 0.00 0.00 82 1013.0
20260902073105 52 203 1.0 4.0 0.00 0.00 0.00 82 1013.3
20260902071531 52 182 3.0 6.0 0.00 0.00 0.00 81 1013.4
20260902064531 54 137 4.0 9.0 0.00 0.00 0.00 79 1013.4
20260902063143 55 153 3.0 8.0 0.00 0.00 0.00 77 1013.1
20260902061607 56 103 3.0 9.0 0.00 0.00 0.00 76 1013.3
20260902060032 56 83 5.0 8.0 0.00 0.00 0.00 75 1013.1
20260902054529 56 34 3.0 7.0 0.00 0.00 0.00 74 1013.0
20260902051531 57 10 0.0 4.0 0.00 0.00 0.00 70 1013.1
20260902050030 58 3 1.0 5.0 0.00 0.00 0.00 67 1012.8
20260902044535 58 343 3.0 7.0 0.00 0.00 0.00 67 1012.7
20260902043029 58 4 3.0 6.0 0.00 0.00 0.00 65 1012.6
20260902034607 60 331 4.0 8.0 0.00 0.00 0.00 61 1012.0
20260902030029 62 316 4.0 11.0 0.00 0.00 0.00 59 1011.3
20260902024643 62 318 5.0 15.0 0.00 0.00 0.00 58 1011.2
20260902023035 63 338 5.0 9.0 0.00 0.00 0.00 57 1011.2
20260902021537 63 352 5.0 13.0 0.00 0.00 0.00 57 1011.1
20260902020106 64 336 6.0 15.0 0.00 0.00 0.00 56 1010.7
20260902014537 65 328 7.0 16.0 0.00 0.00 0.00 55 1010.6
20260902011536 68 323 6.0 13.0 0.00 0.00 0.00 52 1010.2
20260902010029 69 328 8.0 18.0 0.00 0.00 0.00 51 1009.8
20260902004533 71 327 8.0 17.0 0.00 0.00 0.00 51 1009.7
20260902003030 71 333 9.0 18.0 0.00 0.00 0.00 51 1009.7
20260902001533 71 342 8.0 17.0 0.00 0.00 0.00 50 1009.7
20260902000029 72 342 9.0 17.0 0.00 0.00 0.00 51 1009.8
20260901234533 70 2 7.0 14.0 0.00 0.00 0.00 54 1010.0
20260901233106 71 18 6.0 13.0 0.00 0.00 0.00 55 1010.0
20260901231533 70 4 6.0 13.0 0.00 0.00 0.00 55 1010.2
20260901230106 71 1 6.0 13.0 0.00 0.00 0.00 54 1010.2
20260901224537 71 357 7.0 15.0 0.00 0.00 0.00 52 1010.1
20260901223031 73 356 8.0 15.0 0.00 0.00 0.00 49 1010.0
20260901221535 75 353 8.0 15.0 0.00 0.00 0.00 48 1009.8
20260901214532 76 5 7.0 16.0 0.00 0.00 0.00 48 1009.8
20260901213035 75 5 6.0 10.0 0.00 0.00 0.00 49 1009.9
20260901211533 75 20 6.0 13.0 0.00 0.00 0.00 49 1010.1
20260901210030 75 23 7.0 13.0 0.00 0.00 0.00 48 1010.2
20260901204531 76 32 7.0 14.0 0.00 0.00 0.00 47 1010.3
20260901201531 75 24 6.0 12.0 0.00 0.00 0.00 50 1010.6
20260901194533 74 25 5.0 10.0 0.00 0.00 0.00 50 1011.1
20260901193031 73 27 3.0 9.0 0.00 0.00 0.00 51 1011.3
20260901191609 72 19 3.0 7.0 0.00 0.00 0.00 52 1011.6
20260901190105 72 9 3.0 8.0 0.00 0.00 0.00 53 1011.7
20260901184532 71 23 2.0 8.0 0.00 0.00 0.00 55 1011.8
20260901180035 68 69 1.0 7.0 0.00 0.00 0.00 58 1012.2
20260901174531 66 17 2.0 7.0 0.00 0.00 0.00 61 1012.0
20260901173035 66 24 0.0 5.0 0.00 0.00 0.00 61 1012.0
20260901171605 65 65 1.0 6.0 0.00 0.00 0.00 66 1012.0
20260901170105 62 43 2.0 7.0 0.00 0.00 0.00 68 1012.1
20260901164531 61 6 1.0 5.0 0.00 0.00 0.00 68 1012.2
20260901163031 61 18 0.0 4.0 0.00 0.00 0.00 68 1012.2
20260901161529 61 30 1.0 5.0 0.00 0.00 0.00 69 1012.1
20260901160036 59 54 1.0 5.0 0.00 0.00 0.00 71 1012.1
20260901154534 58 72 4.0 7.0 0.00 0.00 0.00 73 1012.1
20260901153032 56 75 2.0 6.0 0.00 0.00 0.00 73 1012.0
20260901151606 54 137 0.0 4.0 0.00 0.00 0.00 72 1012.0
20260901150031 53 247 0.0 0.0 0.00 0.00 0.00 72 1011.8
20260901144606 53 247 0.0 0.0 0.00 0.00 0.00 71 1011.8
20260901143032 52 247 0.0 3.0 0.00 0.00 0.00 70 1011.7
20260901141532 52 198 0.0 3.0 0.00 0.00 0.00 71 1011.7
20260901140106 52 247 0.0 0.0 0.00 0.00 0.00 70 1011.6
20260901133029 54 191 0.0 0.0 0.00 0.00 0.00 66 1011.4
20260901131534 54 157 0.0 0.0 0.00 0.00 0.00 65 1011.3
20260901130035 53 166 0.0 3.0 0.00 0.00 0.00 64 1011.2
20260901124530 53 238 0.0 3.0 0.00 0.00 0.00 63 1011.1
20260901123030 53 270 0.0 0.0 0.00 0.00 0.00 62 1011.0
20260901121643 53 270 0.0 1.0 0.00 0.00 0.00 61 1011.0
20260901120034 54 256 1.0 4.0 0.00 0.00 0.00 61 1011.0
20260901114531 54 238 0.0 2.0 0.00 0.00 0.00 61 1011.1